UmKA 1 (RS40S)
1 57172U 23091G   26025.82651865  .00010719  00000-0  51583-3 0  9996
2 57172  97.5272  85.1055 0011903 254.3331 105.6590 15.18898537142384
CubeBel-2 (EU11S)
1 57175U 23091K   26025.82370200  .00019361  00000-0  76702-3 0  9992
2 57175  97.5266  88.0058 0009365 255.1657 104.8544 15.25415955142572
RS-38S
1 57189U 23091Z   26025.84780873  .00025165  00000-0  83933-3 0  9993
2 57189  97.5290  92.8665 0007425 210.4628 149.6182 15.31037797142877
SONATE-2
1 59112U 24043Q   26025.84728933  .00042166  00000-0  80398-3 0  9990
2 59112  97.5346 168.8449 0008545   8.7650 351.3747 15.48016199105798
MO-122
1 60209U 24125G   26025.55524758  .00051959  00000-0  93089-3 0  9998
2 60209  97.2498 241.0531 0014682  27.6167 332.5861 15.49672507 87384
GRBBeta
1 60237U 24128C   26025.40294405  .00007694  00000-0  53259-3 0  9991
2 60237  61.9921 356.7500 0054586 105.1423 255.5716 15.05255039 84769
Curium One
1 60242U 24128H   26025.45426665  .00014630  00000-0  88078-3 0  9992
2 60242  61.9811 350.3616 0054555 101.8112 258.9109 15.09815031 84889
ROBUSTA-3A
1 60243U 24128J   26025.87529985  .00014977  00000-0  91818-3 0  9998
2 60243  61.9885 350.6145 0054849  99.3055 261.4247 15.09130889 84922
CatSat
1 60246U 24125J   26025.53217184  .00059192  00000-0  12507-2 0  9991
2 60246  97.2268 237.5501 0030956 350.7230   9.3443 15.44453492 85276
HYPERVIEW-1G (RS66S)
1 61772U 24199AP  26025.90191179  .00071218  00000-0  11562-2 0  9996
2 61772  97.3159 261.0186 0011737  78.5059 281.7511 15.52414711112455
AO-123
1 61781U 24199AY  26025.87792146  .00015520  00000-0  48586-3 0  9994
2 61781  97.3215 255.8693 0016043  96.8130 263.4938 15.33069401112103
HADES-R (SO-124)
1 62690U 25009CK  26024.67166181  .00863614  29959-3  32044-2 0  9999
2 62690  97.3729 114.6267 0006942 295.7191  64.3364 15.88076012 57516
HYDRA-T
1 62692U 25009CM  26024.22077362  .01588575  14661-2  32804-2 0  9992
2 62692  97.3675 114.6197 0008273 296.4191  63.6237 15.99524872 57477
JINJUSat 1B
1 63210U 25052A   26025.21750105  .00025667  00000-0  92833-3 0  9996
2 63210  97.4165 282.1493 0001978 206.6368 153.4770 15.28414397 48228
NUSHSAT 1
1 63211U 25052B   26025.70223289  .00030056  00000-0  10409-2 0  9995
2 63211  97.4154 282.8219 0001664 209.6620 150.4526 15.29801608 48318
TEVEL2-4
1 63213U 25052D   26025.46254450  .00030307  00000-0  10766-2 0  9999
2 63213  97.4074 282.0397 0000714 250.5902 109.5261 15.28970989 48266
TEVEL2-5
1 63214U 25052E   26025.66677375  .00028427  00000-0  10129-2 0  9990
2 63214  97.4070 282.2239 0000694 245.9377 114.1790 15.28884959 48294
TEVEL2-6
1 63215U 25052F   26024.23543852  .00030245  00000-0  10813-2 0  9996
2 63215  97.4075 280.7863 0000735 270.1172  89.9983 15.28762577 48075
TEVEL2-1
1 63217U 25052H   26025.79350039  .00028544  00000-0  10297-2 0  9998
2 63217  97.4049 282.1096 0001019 296.6197  63.4938 15.28478121 48300
TEVEL2-3
1 63218U 25052J   26025.66104384  .00027946  00000-0  10076-2 0  9995
2 63218  97.4050 281.9864 0001034 303.9525  56.1617 15.28498982 48284
TEVEL2-2
1 63219U 25052K   26025.66327612  .00027195  00000-0  98162-3 0  9996
2 63219  97.4018 281.9840 0001231 294.4613  65.6498 15.28469704 48286
TEVEL2-9
1 63237U 25052AD  26025.67072336  .00026332  00000-0  99726-3 0  9996
2 63237  97.4111 281.6290 0005102 298.9384  61.1343 15.26878950 48242
TEVEL2-7
1 63238U 25052AE  26025.16506699  .00025494  00000-0  97179-3 0  9993
2 63238  97.4117 281.0910 0005201 301.4925  58.5805 15.26669782 48168
TEVEL2-8
1 63239U 25052AF  26025.23696791  .00025804  00000-0  98418-3 0  9997
2 63239  97.4115 281.1451 0005160 302.4919  57.5820 15.26648757 48172
HYDRA-W
1 63490U 25052BL  26025.67530964  .00145666  00000-0  25800-2 0  9996
2 63490  97.4015 285.3229 0003070 288.0249  72.0668 15.49743207 48502
HADES-ICM (SO-125)
1 63492U 25052BN  26025.67533947  .00120362  00000-0  23860-2 0  9992
2 63492  97.4023 284.8941 0004087 292.7552  67.3265 15.46587361 48476
Dragonfly
1 65729U 98067XH  26025.66842735  .01261085  92481-3  17972-2 0  9993
2 65729  51.6136 266.9855 0007496 201.2231 158.8471 16.05047291 20125
RSP-03
1 65732U 98067XL  26025.67914594  .00451393  00000-0  16219-2 0  9999
2 65732  51.6206 270.1344 0005320 167.5616 192.5521 15.86998570 20092
GHS-01
1 65733U 98067XM  26020.92375749  .09795873  12158-4  14287-2 0  9993
2 65733  51.6117 289.2886 0004779 208.5099 151.5664 16.33783644 19418
BOTAN
1 65942U 98067XP  26025.61180227  .00273960  00000-0  16435-2 0  9996
2 65942  51.6220 275.7312 0005006 171.6243 188.4842 15.76416676 16759
CEVROSAT1
1 66309U 25248S   26025.74952222  .00007926  00000-0  38775-3 0  9990
2 66309  45.4036 164.4976 0003575 304.2572  55.7975 15.18741841 12841
SPIRONE
1 66657U 25274H   26025.31943781  .00004103  00000-0  40181-3 0  9996
2 66657  97.7414 316.7926 0013468 124.8693 235.3795 14.92762565  8901
K-HERO
1 66660U 25274L   26025.76854964  .00004064  00000-0  39298-3 0  9996
2 66660  97.7424 317.2854 0015414 127.8954 232.3662 14.93252463  8977
SNUGLITE-III DURI
1 66661U 25274M   26025.36122409  .00004377  00000-0  42162-3 0  9996
2 66661  97.7425 316.8942 0016056 130.3367 229.9258 14.93361631  8917
SilverSat
1 66909U 98067XV  26025.74278947  .00133254  00000-0  16229-2 0  9993
2 66909  51.6287 282.6285 0003431 134.2416 225.8859 15.59561220  8469
SAKHACUBE-CHOLBON
1 67290U 25313AU  26025.76132858  .00017587  00000-0  77584-3 0  9995
2 67290  97.4084 102.7905 0010815 132.7748 227.4400 15.21784115  4298
QMR-KWT
1 67291U 25313AV  26025.76012107  .00023399  00000-0  10252-2 0  9996
2 67291  97.4085 102.7922 0010634 132.9012 227.3118 15.21959370  4296
IO-86
1 40931U          25360.30710720  .00000000  00000-0  12800-3 0    00
2 40931   6.0006 332.5373 0012733 338.8432   8.1437 14.79075515    01
